Weather History for KTMB - April, 2013

Change the Weather History Date:

Friday, April 5, 2013

  Actual Average Record
Temperature  
Mean Temperature 68 °F -  
Max Temperature 75 °F 81 °F 90 °F (2009)
Min Temperature 64 °F 58 °F 45 °F (1992)
Cooling Degree Days 4    
Growing Degree Days 18 (Base 50)    
Moisture  
Dew Point 66 °F    
Average Humidity 91    
Maximum Humidity 100    
Minimum Humidity 78    
Precipitation  
Precipitation 1.87 in - - ()
Sea Level Pressure  
Sea Level Pressure 29.94 in    
Wind  
Wind Speed 6 mph (NW)    
Max Wind Speed 20 mph    
Max Gust Speed 50 mph    
Visibility 8 miles    
Events Rain , Thunderstorm    
Averages and records for this station are not official NWS values.
T = Trace of Precipitation, MM = Missing Value Source: NWS Daily Summary

Daily Weather History Graph

Daily Weather History Graph

Search for Another Location

Airport or City:

Trip Planner

Search our weather history database for the weather conditions in past years. The results will help you decide how hot, cold, wet, or windy it might be!

Date:

Astronomy

Apr. 05, 2013 Rise Set
Actual Time 7:08 AM EDT 7:40 PM EDT
Civil Twilight 6:45 AM EDT 8:03 PM EDT
Nautical Twilight 6:18 AM EDT 8:30 PM EDT
Astronomical Twilight 5:50 AM EDT 8:58 PM EDT
Moon 3:47 AM EDT (4/5) 3:27 PM EDT (4/5)
Length of Visible Light 13h 18m
Length of Day
12h 31m
Waning Crescent, 24% of the Moon is Illuminated
Apr 5
Waning Crescent
Apr 10
New
Apr 18
First Quarter
Apr 25
Full
May 2
Last Quarter

Hourly Weather History & Observations

Time (EDT) Temp. Dew Point Humidity Pressure Visibility Wind Dir Wind Speed Gust Speed Precip Events Conditions
12:53 AM 73.9 °F 70.0 °F 87% 29.97 in 10.0 mi ESE 3.5 mph - N/A   Partly Cloudy
1:46 AM 73.4 °F 71.6 °F 94% 29.95 in 10.0 mi NNW 6.9 mph - N/A Thunderstorm Overcast
1:53 AM 73.9 °F 71.1 °F 91% 29.94 in 10.0 mi WNW 3.5 mph - N/A Thunderstorm Overcast
1:57 AM 73.4 °F 71.6 °F 94% 29.94 in 10.0 mi NNW 3.5 mph - N/A   Overcast
2:05 AM 73.4 °F 71.6 °F 94% 29.94 in 10.0 mi NNW 5.8 mph - N/A Thunderstorm Overcast
2:17 AM 71.6 °F 68.0 °F 88% 29.97 in 2.0 mi NW 15.0 mph 49.5 mph 0.28 in Rain , Thunderstorm Heavy Thunderstorms and Rain
2:19 AM 71.6 °F 64.4 °F 78% 29.95 in 1.2 mi Variable 3.5 mph 49.5 mph 0.36 in Rain , Thunderstorm Heavy Thunderstorms and Rain
2:21 AM 69.8 °F 64.4 °F 83% 29.96 in 1.0 mi Variable 4.6 mph 49.5 mph 0.38 in Rain , Thunderstorm Heavy Thunderstorms and Rain
2:28 AM 69.8 °F 62.6 °F 78% 29.96 in 2.0 mi NNW 3.5 mph - 0.43 in Rain , Thunderstorm Thunderstorms and Rain
2:36 AM 69.8 °F 64.4 °F 83% 29.97 in 5.0 mi NNW 11.5 mph - 0.44 in Rain , Thunderstorm Light Thunderstorms and Rain
2:53 AM 68.0 °F 64.9 °F 90% 29.99 in 10.0 mi North 19.6 mph 27.6 mph 0.44 in Thunderstorm Overcast
3:12 AM 66.2 °F 64.4 °F 94% 29.96 in 3.0 mi NNW 15.0 mph 23.0 mph 0.14 in Rain , Thunderstorm Heavy Thunderstorms and Rain
3:21 AM 66.2 °F 64.4 °F 94% 29.98 in 1.8 mi WNW 5.8 mph - 0.39 in Rain , Thunderstorm Heavy Thunderstorms and Rain
3:35 AM 64.4 °F 64.4 °F 100% 29.97 in 3.0 mi NNE 8.1 mph - 0.66 in Rain , Thunderstorm Heavy Thunderstorms and Rain
3:53 AM 66.0 °F 64.9 °F 96% 29.99 in 6.0 mi NNW 6.9 mph - 0.73 in Rain , Thunderstorm Light Rain
4:37 AM 66.2 °F 64.4 °F 94% 29.98 in 10.0 mi NNW 9.2 mph 19.6 mph 0.13 in Rain Light Rain
4:53 AM 66.0 °F 64.0 °F 93% 29.99 in 10.0 mi NNW 4.6 mph - 0.13 in Rain Light Rain
5:53 AM 66.0 °F 64.9 °F 96% 29.97 in 10.0 mi Calm Calm - 0.07 in   Scattered Clouds
6:53 AM 66.0 °F 64.9 °F 96% 29.96 in 10.0 mi Calm Calm - N/A   Overcast
7:53 AM 66.9 °F 64.9 °F 93% 29.95 in 10.0 mi SE 8.1 mph - N/A   Partly Cloudy
8:53 AM 69.1 °F 66.0 °F 90% 29.93 in 10.0 mi SSE 8.1 mph - N/A   Clear
9:53 AM 71.1 °F 66.9 °F 87% 29.94 in 10.0 mi SSE 10.4 mph - N/A   Clear
10:53 AM 73.0 °F 66.9 °F 81% 29.93 in 10.0 mi SSE 6.9 mph - N/A   Clear
11:53 AM 71.1 °F 66.9 °F 87% 29.98 in 10.0 mi WNW 11.5 mph - 0.01 in Rain Light Rain
12:53 PM 71.1 °F 66.0 °F 84% 29.92 in 10.0 mi North 4.6 mph - 0.01 in   Mostly Cloudy
1:53 PM 72.0 °F 66.9 °F 84% 29.92 in 10.0 mi NNW 5.8 mph - 0.00 in   Mostly Cloudy
2:53 PM 72.0 °F 66.9 °F 84% 29.91 in 10.0 mi NW 9.2 mph - N/A   Overcast
3:53 PM 66.9 °F 64.9 °F 93% 29.91 in 7.0 mi WNW 8.1 mph - 0.08 in Rain Rain
4:53 PM 66.0 °F 64.0 °F 93% 29.88 in 2.5 mi WNW 6.9 mph - 0.26 in Rain Heavy Rain
5:05 PM 66.2 °F 64.4 °F 94% 29.88 in 8.0 mi West 10.4 mph - 0.02 in Rain Light Rain
5:53 PM 66.0 °F 64.9 °F 96% 29.84 in 9.0 mi Calm Calm - 0.14 in Rain Light Rain
6:53 PM 66.0 °F 64.0 °F 93% 29.86 in 10.0 mi Calm Calm - 0.00 in   Clear
7:31 PM 66.2 °F 64.4 °F 94% 29.87 in 10.0 mi West 4.6 mph - N/A   Partly Cloudy
7:53 PM 66.0 °F 64.0 °F 93% 29.87 in 10.0 mi West 4.6 mph - N/A   Clear
8:39 PM 66.2 °F 64.4 °F 94% 29.89 in 10.0 mi WSW 3.5 mph - N/A   Mostly Cloudy
8:53 PM 66.9 °F 64.9 °F 93% 29.90 in 10.0 mi West 4.6 mph - N/A   Overcast
9:22 PM 66.2 °F 64.4 °F 94% 29.91 in 10.0 mi WSW 8.1 mph - N/A   Mostly Cloudy
9:53 PM 66.9 °F 66.0 °F 97% 29.93 in 10.0 mi WSW 8.1 mph - N/A   Overcast
10:53 PM 66.9 °F 64.9 °F 93% 29.94 in 10.0 mi West 8.1 mph - N/A   Overcast
11:53 PM 66.0 °F 62.1 °F 87% 29.96 in 10.0 mi WNW 9.2 mph - N/A   Overcast